This is the latest recevied weather packets stored in our database for station/object NO4D. If no packets are shown the sender has not sent any weather packets the latest 10 day(s).
| Time | Temp. | Humidity | Pressure | Rain* | Wind** | Luminosity | Snow |
|---|---|---|---|---|---|---|---|
| 1777907019 | 20.56° C | 41% | 1018.1 hPa | 0 mm | - | 666 W/m² | - |
| 1777906717 | 20.56° C | 41% | 1018.2 hPa | 0 mm | - | 637 W/m² | - |
| 1777906413 | 20° C | 42% | 1018.1 hPa | 0 mm | - | 645 W/m² | - |
| 1777906110 | 19.44° C | 41% | 1018.2 hPa | 0 mm | - | 692 W/m² | - |
| 1777905806 | 19.44° C | 42% | 1018.3 hPa | 0 mm | - | 679 W/m² | - |
| 1777905504 | 18.89° C | 43% | 1018.2 hPa | 0 mm | - | 661 W/m² | - |
| 1777905200 | 19.44° C | 42% | 1018.1 hPa | 0 mm | - | 666 W/m² | - |
| 1777904898 | 19.44° C | 44% | 1018 hPa | 0 mm | - | 658 W/m² | - |
| 1777904595 | 18.89° C | 48% | 1018.2 hPa | 0 mm | - | 630 W/m² | - |
| 1777904292 | 18.89° C | 49% | 1018.3 hPa | 0 mm | - | 613 W/m² | - |
| 1777903989 | 18.33° C | 51% | 1018.3 hPa | 0 mm | - | 565 W/m² | - |
| 1777903686 | 18.33° C | 53% | 1018.2 hPa | 0 mm | - | 618 W/m² | - |
| 1777903382 | 17.78° C | 57% | 1018.3 hPa | 0 mm | - | 613 W/m² | - |
| 1777903078 | 17.22° C | 59% | 1018.4 hPa | 0 mm | - | 574 W/m² | - |
| 1777902775 | 17.22° C | 52% | 1018.3 hPa | 0 mm | - | 542 W/m² | - |
| 1777902473 | 16.67° C | 67% | 1018.3 hPa | 0 mm | - | 512 W/m² | - |
| 1777902169 | 17.78° C | 63% | 1018.2 hPa | 0 mm | - | 462 W/m² | - |
| 1777901867 | 16.67° C | 66% | 1018.1 hPa | 0 mm | - | 407 W/m² | - |
| 1777901564 | 16.11° C | 66% | 1018.3 hPa | 0 mm | - | 410 W/m² | - |
| 1777901262 | 16.11° C | 63% | 1018.1 hPa | 0 mm | - | 375 W/m² | - |
| 1777900959 | 16.11° C | 64% | 1018.3 hPa | 0 mm | - | 354 W/m² | - |
| 1777900656 | 17.22° C | 64% | 1018.1 hPa | 0 mm | - | 319 W/m² | - |
| 1777900353 | 15.56° C | 66% | 1018.1 hPa | 0 mm | - | 287 W/m² | - |
| 1777900050 | 15.56° C | 67% | 1017.8 hPa | 0 mm | - | 288 W/m² | - |
| 1777899746 | 15° C | 68% | 1017.8 hPa | 0 mm | - | 246 W/m² | - |
* Rain latest hour (hover to see other rain measurements)
** Current wind speed in m/s (hover to see current wind gust speed)